Regional Weather Roundup
Issued by NWS State College, PA

Home | Current Version | Previous Version | Text Only | Print | Product List | Glossary Off
Versions: 1 2 3 4 5 6 7 8 9 10 11 12 13 14 15 16 17 18 19 20 21 22 23 24 25 26 27 28 29 30 31 32 33 34 35 36 37 38 39 40 41 42 43 44 45 46 47 48 49 50

000
ASUS41 KCTP 202103
RWRCTP

REGIONAL WEATHER ROUNDUP
NATIONAL WEATHER SERVICE STATE COLLEGE PA
500 PM EDT SUN APR 20 2014

Note: "fair" indicates few or no clouds below 12,000 feet with no
significant weather and/or obstructions to visibility.

* = STATION THAT DOES NOT REPORT PRECIPITATION /E.G. RAIN...SNOW...ETC/
    THUNDER OR FOG.

PAZ002>004-007>009-013>016-020>023-029>032-202200-
WESTERN PENNSYLVANIA

CITY           SKY/WX    TMP DP  RH WIND       PRES   REMARKS
ERIE           MOSUNNY   64  27  24 N8        30.22F
MEADVILLE      MOSUNNY   71  23  16 S9        30.21F
FRANKLIN*      MOSUNNY   70  21  16 SE7       30.25S
NEW CASTLE     FAIR      72  20  14 CALM      30.22F
BEAVER COUNTY  NOT AVBL
BUTLER*        SUNNY     70  21  16 SE7       30.24F
PITTSBURGH INT PTSUNNY   71  19  14 VRB5      30.21F
PITTSBURGH     SUNNY     73  25  16 VRB7      30.21F
INDIANA*       SUNNY     70  23  17 SE8       30.25F
LATROBE        MOSUNNY   70  27  19 S9        30.23F
WASHINGTON CO* SUNNY     72  25  17 E8        30.23S
$$

PAZ004>006-010>012-017>019-024>028-033>037-041-042-045-046-049>053-202200-
CENTRAL PENNSYLVANIA

CITY           SKY/WX    TMP DP  RH WIND       PRES   REMARKS
BRADFORD       SUNNY     66  16  14 E7G16     30.25F
DUBOIS         SUNNY     68  17  14 S7        30.24F
CLEARFIELD     SUNNY     67  18  15 SE7       30.27F
JOHNSTOWN      MOSUNNY   62  25  24 SE9       30.26F
ALTOONA        MOSUNNY   65  30  27 S9        30.28F
STATE COLLEGE  SUNNY     66  27  22 S6        30.29F
WILLIAMSPORT   MOSUNNY   65  31  28 CALM      30.30F
SELINSGROVE    MOSUNNY   66  33  29 SW7       30.31F
FT INDIANTOWN  NOT AVBL
CAPITAL CITY   SUNNY     62  34  35 E9        30.33F
HARRISBURG     MOSUNNY   64  36  35 SE9       30.33F
YORK           SUNNY     63  34  33 E5        30.33F
$$

PAZ038>040-043-044-047-048-054-055-060>062-067>071-202200-
EASTERN PENNSYLVANIA

CITY           SKY/WX    TMP DP  RH WIND       PRES   REMARKS
SCRANTON       SUNNY     65  27  23 SW8       30.31F
MOUNT POCONO   SUNNY     57  26  30 SE8       30.34F
ALLENTOWN      SUNNY     62  29  28 E10       30.36F
QUAKERTOWN*    CLEAR     59  30  33 SE12      30.37F
READING        SUNNY     62  32  32 SE9       30.34F
LANCASTER      SUNNY     60  34  37 E8        30.34F
COATESVILLE    PTCLDY    59  28  31 SE7G17    30.36F
POTTSTOWN      SUNNY     58  29  33 SE6       30.38F
BLUE BELL      SUNNY     61  28  29 E12G17    30.38F
DOYLESTOWN     SUNNY     56  29  35 VRB7      30.38S
WILLOW GROVE   NOT AVBL
NORTH PHILA    MOSUNNY   57  26  30 E10       30.42S
PHILADELPHIA   PTSUNNY   57  27  31 E12       30.40S
$$



USA.gov is the U.S. government's official web portal to all federal, state and local government web resources and services.